| time (UTC) | temp C | wind direction | speed KPH | gust KPH | rain 1hr cm | rain 24hr cm | rain mn cm | humidity % | barometer mb |
| 20260502185827 | 32 | 60 | 4.8 | 4.8 | 0.00 | 0.00 | 0.00 | 21 | 1012.5 |
| 20260502185322 | 32 | 2 | 1.6 | 1.6 | 0.00 | 0.00 | 0.00 | 21 | 1012.6 |
| 20260502184820 | 32 | 327 | 4.8 | 8.0 | 0.00 | 0.00 | 0.00 | 21 | 1012.8 |
| 20260502184315 | 32 | 14 | 3.2 | 3.2 | 0.00 | 0.00 | 0.00 | 21 | 1012.7 |
| 20260502183812 | 31 | 20 | 6.4 | 8.0 | 0.00 | 0.00 | 0.00 | 23 | 1012.7 |
| 20260502183308 | 31 | 69 | 11.3 | 12.9 | 0.00 | 0.00 | 0.00 | 24 | 1013.0 |
| 20260502182803 | 31 | 66 | 1.6 | 3.2 | 0.00 | 0.00 | 0.00 | 24 | 1013.0 |
| 20260502182259 | 31 | 17 | 9.7 | 12.9 | 0.00 | 0.00 | 0.00 | 24 | 1013.1 |
| 20260502181755 | 31 | 62 | 8.0 | 12.9 | 0.00 | 0.00 | 0.00 | 24 | 1013.1 |
| 20260502181249 | 31 | 110 | 4.8 | 8.0 | 0.00 | 0.00 | 0.00 | 24 | 1013.3 |
| 20260502180747 | 31 | 59 | 6.4 | 9.7 | 0.00 | 0.00 | 0.00 | 24 | 1013.4 |
| 20260502180244 | 31 | 74 | 11.3 | 16.1 | 0.00 | 0.00 | 0.00 | 24 | 1013.4 |
| 20260502170208 | 30 | 70 | 6.4 | 9.7 | 0.00 | 0.00 | 0.00 | 25 | 1013.5 |
| 20260502164155 | 30 | 69 | 6.4 | 11.3 | 0.00 | 0.00 | 0.00 | 22 | 1013.7 |
| 20260502163650 | 30 | 261 | 4.8 | 4.8 | 0.00 | 0.00 | 0.00 | 23 | 1013.3 |
| 20260502163147 | 30 | 97 | 1.6 | 1.6 | 0.00 | 0.00 | 0.00 | 22 | 1013.6 |
| 20260502162644 | 28 | 64 | 1.6 | 3.2 | 0.00 | 0.00 | 0.00 | 21 | 1013.5 |
| 20260502162141 | 29 | 19 | 3.2 | 3.2 | 0.00 | 0.00 | 0.00 | 23 | 1013.6 |
| 20260502161638 | 28 | 350 | 0.0 | 0.0 | 0.00 | 0.00 | 0.00 | 23 | 1013.5 |
| 20260502161135 | 28 | 6 | 4.8 | 4.8 | 0.00 | 0.00 | 0.00 | 22 | 1013.7 |
| 20260502160633 | 28 | 351 | 1.6 | 3.2 | 0.00 | 0.00 | 0.00 | 22 | 1013.6 |
| 20260502160131 | 27 | 12 | 1.6 | 3.2 | 0.00 | 0.00 | 0.00 | 23 | 1013.7 |
| 20260502152045 | 27 | 2 | 0.0 | 0.0 | 0.00 | 0.00 | 0.00 | 21 | 1013.3 |
| 20260502151543 | 28 | 35 | 3.2 | 4.8 | 0.00 | 0.00 | 0.00 | 20 | 1013.4 |
| 20260502151040 | 27 | 323 | 0.0 | 1.6 | 0.00 | 0.00 | 0.00 | 22 | 1013.1 |
| 20260502150538 | 27 | 18 | 1.6 | 3.2 | 0.00 | 0.00 | 0.00 | 21 | 1013.2 |
| 20260502130422 | 19 | 351 | 0.0 | 0.0 | 0.00 | 0.00 | 0.00 | 29 | 1012.0 |
| 20260502123405 | 20 | 350 | 0.0 | 0.0 | 0.00 | 0.00 | 0.00 | 26 | 1011.4 |
| 20260502122902 | 21 | 348 | 0.0 | 0.0 | 0.00 | 0.00 | 0.00 | 26 | 1011.3 |
| 20260502122358 | 20 | 348 | 0.0 | 0.0 | 0.00 | 0.00 | 0.00 | 26 | 1011.3 |
| 20260502121856 | 20 | 350 | 0.0 | 0.0 | 0.00 | 0.00 | 0.00 | 26 | 1011.1 |
| 20260502121353 | 20 | 352 | 0.0 | 0.0 | 0.00 | 0.00 | 0.00 | 26 | 1010.9 |
| 20260502120851 | 21 | 359 | 0.0 | 0.0 | 0.00 | 0.00 | 0.00 | 25 | 1011.1 |
| 20260502120347 | 21 | 349 | 0.0 | 0.0 | 0.00 | 0.00 | 0.00 | 26 | 1011.0 |
| 20260502115844 | 21 | 350 | 0.0 | 0.0 | 0.00 | 0.00 | 0.00 | 26 | 1011.1 |
| 20260502115342 | 21 | 352 | 0.0 | 0.0 | 0.00 | 0.00 | 0.00 | 25 | 1011.1 |
| 20260502114838 | 21 | 351 | 0.0 | 0.0 | 0.00 | 0.00 | 0.00 | 25 | 1011.1 |
| 20260502114335 | 21 | 343 | 0.0 | 0.0 | 0.00 | 0.00 | 0.00 | 25 | 1011.0 |
| 20260502113832 | 21 | 4 | 0.0 | 0.0 | 0.00 | 0.00 | 0.00 | 25 | 1011.0 |
| 20260502113329 | 21 | 1 | 0.0 | 0.0 | 0.00 | 0.00 | 0.00 | 24 | 1010.8 |
| 20260502112827 | 21 | 349 | 0.0 | 0.0 | 0.00 | 0.00 | 0.00 | 25 | 1010.8 |
| 20260502112324 | 21 | 337 | 0.0 | 0.0 | 0.00 | 0.00 | 0.00 | 25 | 1011.0 |
| 20260502111822 | 21 | 343 | 0.0 | 0.0 | 0.00 | 0.00 | 0.00 | 25 | 1010.8 |
| 20260502111319 | 21 | 356 | 0.0 | 0.0 | 0.00 | 0.00 | 0.00 | 25 | 1010.8 |
| 20260502110817 | 21 | 0 | 0.0 | 1.6 | 0.00 | 0.00 | 0.00 | 25 | 1010.8 |
| 20260502110314 | 21 | 351 | 0.0 | 0.0 | 0.00 | 0.00 | 0.00 | 25 | 1010.6 |
| 20260502105812 | 21 | 352 | 0.0 | 0.0 | 0.00 | 0.00 | 0.00 | 25 | 1011.0 |
| 20260502105308 | 21 | 355 | 0.0 | 0.0 | 0.00 | 0.00 | 0.00 | 25 | 1011.0 |
| 20260502104806 | 21 | 356 | 0.0 | 0.0 | 0.00 | 0.00 | 0.00 | 25 | 1010.9 |
| 20260502104303 | 21 | 342 | 0.0 | 0.0 | 0.00 | 0.00 | 0.00 | 25 | 1010.9 |
| 20260502103800 | 21 | 349 | 0.0 | 0.0 | 0.00 | 0.00 | 0.00 | 26 | 1010.8 |
| 20260502103258 | 21 | 345 | 0.0 | 0.0 | 0.00 | 0.00 | 0.00 | 26 | 1010.6 |
| 20260502102755 | 21 | 352 | 0.0 | 0.0 | 0.00 | 0.00 | 0.00 | 26 | 1010.9 |
| 20260502102251 | 21 | 350 | 0.0 | 0.0 | 0.00 | 0.00 | 0.00 | 26 | 1010.7 |
| 20260502101749 | 21 | 350 | 0.0 | 0.0 | 0.00 | 0.00 | 0.00 | 25 | 1010.6 |
| 20260502101247 | 21 | 351 | 0.0 | 0.0 | 0.00 | 0.00 | 0.00 | 25 | 1010.7 |
| 20260502100745 | 22 | 351 | 0.0 | 0.0 | 0.00 | 0.00 | 0.00 | 25 | 1010.5 |
| 20260502100244 | 22 | 344 | 0.0 | 0.0 | 0.00 | 0.00 | 0.00 | 25 | 1010.5 |
| 20260502091218 | 23 | 350 | 0.0 | 0.0 | 0.00 | 0.00 | 0.00 | 23 | 1010.4 |
| 20260502090715 | 23 | 349 | 0.0 | 0.0 | 0.00 | 0.00 | 0.00 | 23 | 1010.3 |
| 20260502090212 | 23 | 347 | 0.0 | 1.6 | 0.00 | 0.00 | 0.00 | 23 | 1010.1 |
| 20260502071107 | 25 | 21 | 0.0 | 1.6 | 0.00 | 0.00 | 0.00 | 18 | 1009.8 |
| 20260502070605 | 25 | 6 | 0.0 | 0.0 | 0.00 | 0.00 | 0.00 | 17 | 1009.8 |
| 20260502065601 | 25 | 25 | 0.0 | 1.6 | 0.00 | 0.00 | 0.00 | 17 | 1009.7 |
| 20260502065058 | 25 | 16 | 1.6 | 1.6 | 0.00 | 0.00 | 0.00 | 16 | 1009.7 |
| 20260502064557 | 25 | 343 | 1.6 | 1.6 | 0.00 | 0.00 | 0.00 | 16 | 1009.7 |
| 20260502064054 | 26 | 292 | 1.6 | 3.2 | 0.00 | 0.00 | 0.00 | 15 | 1009.7 |
| 20260502063551 | 26 | 346 | 1.6 | 1.6 | 0.00 | 0.00 | 0.00 | 15 | 1009.8 |
| 20260502063049 | 26 | 289 | 3.2 | 3.2 | 0.00 | 0.00 | 0.00 | 15 | 1009.5 |
| 20260502062546 | 26 | 353 | 0.0 | 0.0 | 0.00 | 0.00 | 0.00 | 14 | 1009.4 |
| 20260502062044 | 26 | 347 | 0.0 | 1.6 | 0.00 | 0.00 | 0.00 | 15 | 1009.5 |
| 20260502061542 | 26 | 319 | 0.0 | 1.6 | 0.00 | 0.00 | 0.00 | 15 | 1009.4 |
| 20260502061039 | 26 | 298 | 4.8 | 8.0 | 0.00 | 0.00 | 0.00 | 15 | 1009.2 |
| 20260502060533 | 26 | 5 | 0.0 | 0.0 | 0.00 | 0.00 | 0.00 | 15 | 1009.3 |
| 20260502060031 | 26 | 291 | 6.4 | 9.7 | 0.00 | 0.00 | 0.00 | 16 | 1009.2 |
| 20260502055528 | 25 | 323 | 3.2 | 3.2 | 0.00 | 0.00 | 0.00 | 16 | 1009.1 |
| 20260502055027 | 25 | 345 | 0.0 | 0.0 | 0.00 | 0.00 | 0.00 | 17 | 1009.2 |
| 20260502054525 | 25 | 349 | 0.0 | 0.0 | 0.00 | 0.00 | 0.00 | 18 | 1009.0 |
| 20260502054022 | 25 | 346 | 0.0 | 0.0 | 0.00 | 0.00 | 0.00 | 19 | 1009.1 |
| 20260502053519 | 25 | 351 | 0.0 | 0.0 | 0.00 | 0.00 | 0.00 | 19 | 1009.1 |
| 20260502053017 | 25 | 333 | 0.0 | 0.0 | 0.00 | 0.00 | 0.00 | 19 | 1008.9 |
| 20260502052515 | 26 | 351 | 0.0 | 0.0 | 0.00 | 0.00 | 0.00 | 19 | 1009.0 |
| 20260502052013 | 26 | 338 | 0.0 | 0.0 | 0.00 | 0.00 | 0.00 | 19 | 1009.2 |
| 20260502051510 | 26 | 351 | 0.0 | 0.0 | 0.00 | 0.00 | 0.00 | 19 | 1008.9 |
| 20260502051008 | 25 | 351 | 0.0 | 0.0 | 0.00 | 0.00 | 0.00 | 20 | 1009.0 |
| 20260502050504 | 25 | 345 | 0.0 | 0.0 | 0.00 | 0.00 | 0.00 | 22 | 1009.2 |
| 20260502050001 | 26 | 330 | 1.6 | 3.2 | 0.00 | 0.00 | 0.00 | 22 | 1008.8 |
| 20260502045457 | 26 | 348 | 0.0 | 0.0 | 0.00 | 0.00 | 0.00 | 21 | 1008.9 |
| 20260502044955 | 25 | 349 | 0.0 | 0.0 | 0.00 | 0.00 | 0.00 | 22 | 1008.8 |
| 20260502044450 | 26 | 334 | 0.0 | 1.6 | 0.00 | 0.00 | 0.00 | 22 | 1008.9 |
| 20260502043947 | 27 | 340 | 0.0 | 0.0 | 0.00 | 0.00 | 0.00 | 21 | 1008.9 |
| 20260502043445 | 27 | 1 | 1.6 | 3.2 | 0.00 | 0.00 | 0.00 | 20 | 1008.7 |
| 20260502042944 | 26 | 187 | 1.6 | 3.2 | 0.00 | 0.00 | 0.00 | 20 | 1008.7 |
| 20260502042442 | 26 | 351 | 0.0 | 0.0 | 0.00 | 0.00 | 0.00 | 22 | 1008.7 |
| 20260502041939 | 26 | 351 | 0.0 | 0.0 | 0.00 | 0.00 | 0.00 | 22 | 1008.9 |
| 20260502041437 | 27 | 339 | 0.0 | 0.0 | 0.00 | 0.00 | 0.00 | 21 | 1008.4 |
| 20260502040933 | 27 | 355 | 0.0 | 0.0 | 0.00 | 0.00 | 0.00 | 21 | 1008.4 |
| 20260502040430 | 27 | 351 | 3.2 | 3.2 | 0.00 | 0.00 | 0.00 | 21 | 1008.6 |
| 20260502035926 | 27 | 359 | 1.6 | 1.6 | 0.00 | 0.00 | 0.00 | 21 | 1008.6 |
| 20260502035423 | 27 | 325 | 1.6 | 1.6 | 0.00 | 0.00 | 0.00 | 22 | 1008.4 |
| 20260502034921 | 27 | 12 | 1.6 | 3.2 | 0.00 | 0.00 | 0.00 | 21 | 1008.2 |
| 20260502034419 | 27 | 10 | 0.0 | 0.0 | 0.00 | 0.00 | 0.00 | 21 | 1008.4 |
| 20260502033917 | 27 | 8 | 0.0 | 0.0 | 0.00 | 0.00 | 0.00 | 21 | 1008.1 |
| 20260502033414 | 28 | 22 | 1.6 | 1.6 | 0.00 | 0.00 | 0.00 | 20 | 1008.0 |
| 20260502032911 | 28 | 8 | 1.6 | 1.6 | 0.00 | 0.00 | 0.00 | 20 | 1008.3 |
| 20260502032407 | 28 | 0 | 1.6 | 1.6 | 0.00 | 0.00 | 0.00 | 19 | 1008.2 |
| 20260502031904 | 28 | 33 | 3.2 | 3.2 | 0.00 | 0.00 | 0.00 | 19 | 1008.0 |
| 20260502031403 | 28 | 341 | 1.6 | 1.6 | 0.00 | 0.00 | 0.00 | 19 | 1007.8 |
| 20260502030901 | 28 | 348 | 0.0 | 0.0 | 0.00 | 0.00 | 0.00 | 19 | 1007.9 |
| 20260502030359 | 28 | 342 | 3.2 | 3.2 | 0.00 | 0.00 | 0.00 | 19 | 1007.9 |
| 20260502025856 | 28 | 347 | 1.6 | 1.6 | 0.00 | 0.00 | 0.00 | 19 | 1007.6 |
| 20260502025353 | 29 | 7 | 0.0 | 1.6 | 0.00 | 0.00 | 0.00 | 18 | 1007.5 |
| 20260502024851 | 29 | 121 | 3.2 | 3.2 | 0.00 | 0.00 | 0.00 | 18 | 1007.6 |
| 20260502024349 | 29 | 348 | 1.6 | 3.2 | 0.00 | 0.00 | 0.00 | 18 | 1007.5 |
| 20260502023847 | 29 | 162 | 3.2 | 3.2 | 0.00 | 0.00 | 0.00 | 18 | 1007.7 |
| 20260502023344 | 29 | 328 | 3.2 | 4.8 | 0.00 | 0.00 | 0.00 | 18 | 1007.3 |
| 20260502022842 | 30 | 277 | 1.6 | 1.6 | 0.00 | 0.00 | 0.00 | 18 | 1007.4 |
| 20260502022338 | 30 | 349 | 4.8 | 9.7 | 0.00 | 0.00 | 0.00 | 18 | 1007.4 |
| 20260502021835 | 30 | 336 | 1.6 | 1.6 | 0.00 | 0.00 | 0.00 | 18 | 1007.3 |
| 20260502021332 | 30 | 26 | 3.2 | 4.8 | 0.00 | 0.00 | 0.00 | 18 | 1007.3 |
| 20260502020829 | 30 | 26 | 1.6 | 3.2 | 0.00 | 0.00 | 0.00 | 18 | 1007.3 |
| 20260502020327 | 30 | 0 | 3.2 | 3.2 | 0.00 | 0.00 | 0.00 | 18 | 1007.3 |
| 20260502015824 | 30 | 326 | 4.8 | 8.0 | 0.00 | 0.00 | 0.00 | 18 | 1007.2 |
| 20260502015321 | 30 | 70 | 0.0 | 1.6 | 0.00 | 0.00 | 0.00 | 17 | 1007.1 |
| 20260502014818 | 30 | 307 | 3.2 | 4.8 | 0.00 | 0.00 | 0.00 | 17 | 1007.0 |
| 20260502014315 | 31 | 348 | 1.6 | 3.2 | 0.00 | 0.00 | 0.00 | 16 | 1007.2 |
| 20260502013811 | 31 | 320 | 1.6 | 1.6 | 0.00 | 0.00 | 0.00 | 16 | 1006.9 |
| 20260502013307 | 31 | 349 | 4.8 | 4.8 | 0.00 | 0.00 | 0.00 | 16 | 1007.2 |
| 20260502012803 | 31 | 1 | 1.6 | 1.6 | 0.00 | 0.00 | 0.00 | 16 | 1007.1 |
| 20260502012301 | 31 | 348 | 3.2 | 3.2 | 0.00 | 0.00 | 0.00 | 17 | 1006.9 |
| 20260502011758 | 31 | 323 | 1.6 | 1.6 | 0.00 | 0.00 | 0.00 | 17 | 1006.9 |
| 20260502011254 | 31 | 348 | 1.6 | 1.6 | 0.00 | 0.00 | 0.00 | 17 | 1007.0 |
| 20260502010752 | 31 | 298 | 3.2 | 3.2 | 0.00 | 0.00 | 0.00 | 17 | 1007.1 |
| 20260502010248 | 32 | 350 | 0.0 | 0.0 | 0.00 | 0.00 | 0.00 | 15 | 1007.1 |
| 20260502005745 | 32 | 344 | 1.6 | 3.2 | 0.00 | 0.00 | 0.00 | 16 | 1007.0 |
| 20260502005243 | 32 | 22 | 1.6 | 1.6 | 0.00 | 0.00 | 0.00 | 16 | 1007.1 |
| 20260502004740 | 32 | 1 | 0.0 | 1.6 | 0.00 | 0.00 | 0.00 | 16 | 1007.2 |
| 20260502004236 | 32 | 346 | 1.6 | 3.2 | 0.00 | 0.00 | 0.00 | 16 | 1007.3 |
| 20260502003734 | 32 | 279 | 4.8 | 8.0 | 0.00 | 0.00 | 0.00 | 18 | 1007.2 |
| 20260502003231 | 32 | 355 | 1.6 | 1.6 | 0.00 | 0.00 | 0.00 | 15 | 1007.1 |
| 20260502002726 | 32 | 350 | 0.0 | 0.0 | 0.00 | 0.00 | 0.00 | 16 | 1007.3 |
| 20260502002224 | 32 | 347 | 0.0 | 0.0 | 0.00 | 0.00 | 0.00 | 16 | 1007.3 |
| 20260502001721 | 33 | 317 | 3.2 | 3.2 | 0.00 | 0.00 | 0.00 | 16 | 1007.6 |
| 20260502001219 | 33 | 155 | 6.4 | 9.7 | 0.00 | 0.00 | 0.00 | 17 | 1007.4 |
| 20260502000716 | 33 | 355 | 0.0 | 0.0 | 0.00 | 0.00 | 0.00 | 17 | 1007.4 |
| 20260502000215 | 32 | 331 | 9.7 | 11.3 | 0.00 | 0.00 | 0.00 | 17 | 1007.4 |
| 20260501235710 | 32 | 316 | 1.6 | 3.2 | 0.00 | 0.00 | 0.00 | 17 | 1007.7 |
| 20260501235206 | 33 | 43 | 1.6 | 3.2 | 0.00 | 0.00 | 0.00 | 17 | 1007.6 |
| 20260501234702 | 33 | 304 | 0.0 | 1.6 | 0.00 | 0.00 | 0.00 | 17 | 1007.4 |
| 20260501234159 | 33 | 22 | 1.6 | 1.6 | 0.00 | 0.00 | 0.00 | 18 | 1007.4 |
| 20260501233657 | 33 | 340 | 1.6 | 1.6 | 0.00 | 0.00 | 0.00 | 18 | 1007.6 |
| 20260501233154 | 32 | 345 | 0.0 | 0.0 | 0.00 | 0.00 | 0.00 | 19 | 1007.7 |
| 20260501232650 | 32 | 299 | 4.8 | 4.8 | 0.00 | 0.00 | 0.00 | 19 | 1007.4 |
| 20260501232148 | 32 | 73 | 1.6 | 1.6 | 0.00 | 0.00 | 0.00 | 19 | 1007.7 |
| 20260501231645 | 32 | 312 | 0.0 | 0.0 | 0.00 | 0.00 | 0.00 | 20 | 1007.5 |
| 20260501231143 | 33 | 347 | 1.6 | 3.2 | 0.00 | 0.00 | 0.00 | 20 | 1007.6 |
| 20260501230641 | 32 | 343 | 0.0 | 1.6 | 0.00 | 0.00 | 0.00 | 20 | 1007.6 |
| 20260501230139 | 32 | 353 | 0.0 | 0.0 | 0.00 | 0.00 | 0.00 | 19 | 1007.6 |
| 20260501225636 | 32 | 76 | 3.2 | 3.2 | 0.00 | 0.00 | 0.00 | 20 | 1007.7 |
| 20260501225132 | 32 | 296 | 0.0 | 3.2 | 0.00 | 0.00 | 0.00 | 20 | 1007.8 |
| 20260501224629 | 31 | 34 | 4.8 | 4.8 | 0.00 | 0.00 | 0.00 | 21 | 1007.8 |
| 20260501224127 | 32 | 21 | 3.2 | 3.2 | 0.00 | 0.00 | 0.00 | 21 | 1007.7 |
| 20260501223623 | 32 | 325 | 1.6 | 3.2 | 0.00 | 0.00 | 0.00 | 20 | 1007.8 |
| 20260501223120 | 32 | 56 | 1.6 | 1.6 | 0.00 | 0.00 | 0.00 | 21 | 1008.0 |
| 20260501222616 | 32 | 53 | 4.8 | 4.8 | 0.00 | 0.00 | 0.00 | 21 | 1008.1 |
| 20260501222113 | 33 | 33 | 4.8 | 4.8 | 0.00 | 0.00 | 0.00 | 22 | 1008.1 |
| 20260501221609 | 32 | 311 | 0.0 | 1.6 | 0.00 | 0.00 | 0.00 | 21 | 1008.3 |
| 20260501221107 | 31 | 114 | 4.8 | 4.8 | 0.00 | 0.00 | 0.00 | 22 | 1008.6 |
| 20260501220605 | 32 | 11 | 1.6 | 1.6 | 0.00 | 0.00 | 0.00 | 21 | 1008.2 |
| 20260501215558 | 31 | 83 | 4.8 | 4.8 | 0.00 | 0.00 | 0.00 | 22 | 1008.7 |
| 20260501215053 | 31 | 30 | 3.2 | 3.2 | 0.00 | 0.00 | 0.00 | 21 | 1008.9 |
| 20260501214548 | 31 | 345 | 1.6 | 4.8 | 0.00 | 0.00 | 0.00 | 23 | 1009.0 |
| 20260501214044 | 31 | 355 | 0.0 | 1.6 | 0.00 | 0.00 | 0.00 | 22 | 1009.0 |
| 20260501213542 | 31 | 352 | 0.0 | 1.6 | 0.00 | 0.00 | 0.00 | 22 | 1009.0 |
| 20260501213037 | 31 | 81 | 4.8 | 8.0 | 0.00 | 0.00 | 0.00 | 23 | 1009.2 |
| 20260501212534 | 31 | 290 | 1.6 | 1.6 | 0.00 | 0.00 | 0.00 | 23 | 1009.4 |
| 20260501212031 | 31 | 338 | 3.2 | 4.8 | 0.00 | 0.00 | 0.00 | 22 | 1009.2 |
| 20260501211528 | 31 | 330 | 0.0 | 0.0 | 0.00 | 0.00 | 0.00 | 22 | 1009.4 |
| 20260501211026 | 31 | 36 | 3.2 | 3.2 | 0.00 | 0.00 | 0.00 | 23 | 1009.4 |
| 20260501210522 | 31 | 334 | 1.6 | 3.2 | 0.00 | 0.00 | 0.00 | 23 | 1009.4 |
| 20260501210019 | 31 | 333 | 1.6 | 1.6 | 0.00 | 0.00 | 0.00 | 23 | 1009.6 |
| 20260501205515 | 30 | 33 | 0.0 | 0.0 | 0.00 | 0.00 | 0.00 | 22 | 1009.7 |
| 20260501205014 | 31 | 288 | 1.6 | 8.0 | 0.00 | 0.00 | 0.00 | 22 | 1009.6 |
| 20260501204509 | 31 | 341 | 1.6 | 1.6 | 0.00 | 0.00 | 0.00 | 22 | 1009.8 |
| 20260501204005 | 31 | 293 | 9.7 | 12.9 | 0.00 | 0.00 | 0.00 | 22 | 1010.0 |
| 20260501203502 | 30 | 355 | 0.0 | 1.6 | 0.00 | 0.00 | 0.00 | 22 | 1009.7 |
| 20260501203000 | 30 | 309 | 1.6 | 3.2 | 0.00 | 0.00 | 0.00 | 23 | 1010.0 |
| 20260501202456 | 30 | 10 | 0.0 | 1.6 | 0.00 | 0.00 | 0.00 | 23 | 1010.1 |
| 20260501201952 | 30 | 231 | 4.8 | 4.8 | 0.00 | 0.00 | 0.00 | 23 | 1009.9 |
| 20260501201450 | 30 | 70 | 8.0 | 11.3 | 0.00 | 0.00 | 0.00 | 23 | 1009.9 |
| 20260501200947 | 30 | 299 | 4.8 | 4.8 | 0.00 | 0.00 | 0.00 | 23 | 1010.0 |
| 20260501200444 | 31 | 1 | 0.0 | 0.0 | 0.00 | 0.00 | 0.00 | 23 | 1010.2 |
| 20260501195941 | 31 | 2 | 1.6 | 1.6 | 0.00 | 0.00 | 0.00 | 22 | 1010.1 |
| 20260501195438 | 30 | 136 | 3.2 | 4.8 | 0.00 | 0.00 | 0.00 | 23 | 1010.2 |
| 20260501194933 | 30 | 13 | 3.2 | 3.2 | 0.00 | 0.00 | 0.00 | 23 | 1010.2 |
| 20260501194429 | 30 | 87 | 3.2 | 4.8 | 0.00 | 0.00 | 0.00 | 24 | 1010.4 |
| 20260501193925 | 30 | 67 | 3.2 | 3.2 | 0.00 | 0.00 | 0.00 | 24 | 1010.4 |
| 20260501193424 | 29 | 286 | 1.6 | 1.6 | 0.00 | 0.00 | 0.00 | 24 | 1010.2 |
| 20260501192921 | 30 | 9 | 3.2 | 3.2 | 0.00 | 0.00 | 0.00 | 24 | 1010.6 |
| 20260501192418 | 29 | 353 | 0.0 | 0.0 | 0.00 | 0.00 | 0.00 | 24 | 1010.7 |
| 20260501191915 | 28 | 353 | 1.6 | 1.6 | 0.00 | 0.00 | 0.00 | 25 | 1010.6 |
| 20260501191413 | 28 | 45 | 3.2 | 4.8 | 0.00 | 0.00 | 0.00 | 26 | 1010.7 |
| 20260501190909 | 28 | 74 | 4.8 | 8.0 | 0.00 | 0.00 | 0.00 | 26 | 1010.8 |
| 20260501190405 | 29 | 339 | 1.6 | 1.6 | 0.00 | 0.00 | 0.00 | 26 | 1010.8 |